[TLELIST] Archives

 

[TLELIST] Current TLEs

June 28th 2025 PDT

HST 1 20580U 90037B 25178.71024499 .00004448 00000-0 16287-3 0 9990 2 20580 28.4688 333.5833 0001995 201.3866 158.6645 15.25413367734298 ISS (ZARYA) 1 25544U 98067A 25179.15776912 .00006109 00000-0 11381-3 0 9995 2 25544 51.6349 252.7052 0002263 302.4301 57.6469 15.50279857516861 CXO 1 25867U 99040B 25180.01489709 .00000406 00000-0 00000-0 0 9994 2 25867 49.8035 129.0801 8406114 309.7498 0.1403 0.37805167 15982 ...Continue Reading

[TLELIST] Current TLEs

June 27th 2025 PDT

HST 1 20580U 90037B 25177.66345114 .00004439 00000-0 16260-3 0 9994 2 20580 28.4690 340.6799 0002056 189.0850 170.9707 15.25404707734132 ISS (ZARYA) 1 25544U 98067A 25178.19083724 .00010790 00000-0 19492-3 0 9992 2 25544 51.6352 257.4981 0002229 299.2930 60.7836 15.50270582516714 CXO 1 25867U 99040B 25180.01489709 .00000406 00000-0 00000-0 0 9994 2 25867 49.8035 129.0801 8406114 309.7498 0.1403 0.37805167 15982 ...Continue Reading

[TLELIST] Current TLEs

June 26th 2025 PDT

HST 1 20580U 90037B 25176.74750148 .00004031 00000-0 14691-3 0 9993 2 20580 28.4689 346.8889 0002147 178.5189 181.5412 15.25396764733994 ISS (ZARYA) 1 25544U 98067A 25177.22389621 .00008071 00000-0 14796-3 0 9991 2 25544 51.6358 262.2903 0002177 292.8641 67.2118 15.50247662516569 CXO 1 25867U 99040B 25180.01489709 .00000406 00000-0 00000-0 0 9994 2 25867 49.8035 129.0801 8406114 309.7498 0.1403 0.37805167 15982 ...Continue Reading

[TLELIST] Current TLEs

June 25th 2025 PDT

HST 1 20580U 90037B 25176.15867404 .00003942 00000-0 14351-3 0 9995 2 20580 28.4690 350.8805 0002188 172.2630 187.7999 15.25392441734162 ISS (ZARYA) 1 25544U 98067A 25176.12801460 .00008634 00000-0 15782-3 0 9990 2 25544 51.6361 267.7216 0002169 287.1941 72.8811 15.50230128516393 CXO 1 25867U 99040B 25174.72419316 .00000421 00000-0 00000+0 0 9998 2 25867 49.6806 129.3423 8417193 309.6282 0.0394 0.37805500 27126 ...Continue Reading

[TLELIST] Current TLEs

June 24th 2025 PDT

HST 1 20580U 90037B 25174.91558896 .00004148 00000-0 15150-3 0 9996 2 20580 28.4691 359.3068 0002339 158.7567 201.3125 15.25383683733716 ISS (ZARYA) 1 25544U 98067A 25175.16104992 .00007620 00000-0 14032-3 0 9990 2 25544 51.6364 272.5136 0002157 282.3316 77.7431 15.50212564516241 CXO 1 25867U 99040B 25174.72419316 .00000421 00000-0 00000+0 0 9998 2 25867 49.6806 129.3423 8417193 309.6282 0.0394 0.37805500 27126 ...Continue Reading

[TLELIST] Current TLEs

June 24th 2025 PDT

HST 1 20580U 90037B 25174.91558896 .00004148 00000-0 15150-3 0 9996 2 20580 28.4691 359.3068 0002339 158.7567 201.3125 15.25383683733716 ISS (ZARYA) 1 25544U 98067A 25175.16104992 .00007620 00000-0 14032-3 0 9990 2 25544 51.6364 272.5136 0002157 282.3316 77.7431 15.50212564516241 CXO 1 25867U 99040B 25174.72419316 .00000421 00000-0 00000+0 0 9998 2 25867 49.6806 129.3423 8417193 309.6282 0.0394 0.37805500 27126 ...Continue Reading

[TLELIST] [TLELIST] Current TLEs

June 24th 2025 PDT

HST 1 20580U 90037B 25174.91558896 .00004148 00000-0 15150-3 0 9996 2 20580 28.4691 359.3068 0002339 158.7567 201.3125 15.25383683733716 ISS (ZARYA) 1 25544U 98067A 25175.16104992 .00007620 00000-0 14032-3 0 9990 2 25544 51.6364 272.5136 0002157 282.3316 77.7431 15.50212564516241 CXO 1 25867U 99040B 25174.72419316 .00000421 00000-0 00000+0 0 9998 2 25867 49.6806 129.3423 8417193 309.6282 0.0394 0.37805500 27126 ...Continue Reading

[TLELIST] Current TLEs

June 23rd 2025 PDT

HST 1 20580U 90037B 25173.67249660 .00004199 00000-0 15349-3 0 9990 2 20580 28.4690 7.7332 0002418 146.3870 213.6878 15.25373989733529 ISS (ZARYA) 1 25544U 98067A 25174.12960992 .00008687 00000-0 15892-3 0 9994 2 25544 51.6363 277.6254 0002153 276.8659 83.2085 15.50196020516088 CXO 1 25867U 99040B 25174.72419316 .00000421 00000-0 00000+0 0 9998 2 25867 49.6806 129.3423 8417193 309.6282 0.0394 0.37805500 27126 ...Continue Reading

[TLELIST] Current TLEs

June 22nd 2025 PDT

HST 1 20580U 90037B 25172.82195484 .00004547 00000-0 16690-3 0 9997 2 20580 28.4691 13.4987 0002458 137.6667 222.4117 15.25368140733393 ISS (ZARYA) 1 25544U 98067A 25173.17490985 .00010712 00000-0 19418-3 0 9998 2 25544 51.6385 282.3529 0001886 270.6693 158.0157 15.50179970515931 CXO 1 25867U 99040B 25174.72419316 .00000421 00000-0 00000+0 0 9998 2 25867 49.6806 129.3423 8417193 309.6282 0.0394 0.37805500 27126 ...Continue Reading

[TLELIST] Current TLEs

June 22nd 2025 PDT

HST 1 20580U 90037B 25172.82195484 .00004547 00000-0 16690-3 0 9997 2 20580 28.4691 13.4987 0002458 137.6667 222.4117 15.25368140733393 ISS (ZARYA) 1 25544U 98067A 25173.17490985 .00010712 00000-0 19418-3 0 9998 2 25544 51.6385 282.3529 0001886 270.6693 158.0157 15.50179970515931 CXO 1 25867U 99040B 25174.72419316 .00000421 00000-0 00000+0 0 9998 2 25867 49.6806 129.3423 8417193 309.6282 0.0394 0.37805500 27126 ...Continue Reading
  • This mailing list is a public mailing list - anyone may join or leave, at any time.
  • This mailing list is announce-only.

International Space Station (ISS) / Hubble Space Telescope (HST) / Chandra X-Ray Observatory Orbital Data via EMAIL

Privacy Policy:

Private list